SL-3 DEB

基本信息
目录编号:
17755
目录名称:
SL-3 DEB
国际标识:
1982-116D
轨道中心:
EARTH
物体状态:
在轨
发射日期:
1982-12-14 UTC
轨道信息
数据来源: 国际轨道数据
星历时间: 2026-07-13T20:39:58+0800
半长轴: 7221.438km
偏心率: 0.0067827
轨道倾角: 81.255°
近地点辐角: 277.483°
升交点赤经: 359.890°
平近点角: 147.772°
近地点: 794.32km
远地点: 892.282km
周期: 101.788分钟
每日圈数: 14.147095
详细信息
发射场:
PKMTR
轨道高度:
LEO
数据来源:
AOE Integration Group
参考系:
TEME
时间系统:
UTC
历元类型:
SGP4
2D轨道图
3D轨道图
轨道高度分析图
轨道倾角分析图
轨道综合分析图
查看轨道综合分析图